Vorticity
nan nan nan nan nan nan nan nan nan nan nan nan nan nan nan nan nan nan nan nan nan nan nan nan nan nan nan nan nan nan nan nan nan nan nan nan nan nan nan nan nan nan nan nan
nan 8 9 10 9 7 9 9 13 12 6 8 4 8 11 7 10 5 9 9 10 11 10 9 7 7 3 4 12 8 11 13 13 11 10 8 9 6 11 16 17 9 3 nan
nan 9 11 10 9 8 5 8 12 10 8 13 14 5 9 6 7 7 9 10 8 10 9 10 8 8 6 6 8 12 16 8 8 7 5 7 4 4 5 9 8 12 9 nan
nan 10 10 10 10 7 5 9 9 11 14 13 14 8 8 7 6 12 6 7 9 4 4 7 8 7 8 7 11 16 13 14 10 9 6 4 1 3 2 8 13 9 11 nan
nan 11 10 11 12 6 1 8 10 7 7 20 18 7 9 11 7 4 6 10 9 5 5 2 1 5 8 6 4 7 13 15 11 11 15 11 8 8 8 13 10 9 10 nan
nan 11 10 9 9 4 3 11 7 10 10 9 12 17 16 9 3 5 9 9 4 8 12 13 13 8 5 4 3 6 11 12 11 8 12 14 19 19 12 6 6 5 7 nan
nan 10 11 12 11 0 -1 8 12 12 9 13 10 9 14 11 6 4 7 7 5 8 9 13 16 16 14 11 12 7 3 8 9 10 12 8 4 13 20 10 8 10 8 nan
nan 15 13 14 13 2 -1 4 8 11 15 9 13 18 11 7 11 11 7 7 9 5 9 13 11 11 16 20 19 13 8 4 7 11 6 5 12 15 17 14 6 10 12 nan
nan 15 22 22 12 4 0 8 4 8 16 18 12 13 13 11 10 13 14 10 10 8 12 10 11 8 9 12 18 20 15 6 5 7 9 9 11 10 10 11 12 9 8 nan
nan 14 25 23 14 5 -3 11 11 2 9 19 14 7 11 12 9 9 19 14 9 11 7 10 11 9 9 11 12 14 11 14 10 5 6 9 11 9 10 6 9 11 5 nan
nan 13 19 19 14 7 -1 7 15 3 6 12 15 11 6 8 11 9 7 10 13 12 11 9 11 11 10 10 12 13 9 7 10 9 9 14 14 10 4 4 10 8 3 nan
nan 15 12 15 20 18 -1 3 17 10 4 11 13 14 20 21 5 3 7 4 11 9 9 12 10 9 14 13 7 9 11 12 11 9 6 6 4 6 7 8 9 9 12 nan
nan 14 13 13 15 20 9 3 13 8 9 12 13 14 10 14 14 11 9 11 10 10 10 11 10 12 12 10 10 9 11 12 7 7 8 4 2 11 8 9 12 12 17 nan
nan 13 13 13 14 4 7 13 9 6 10 11 12 13 13 11 9 7 6 10 10 11 10 9 11 13 11 8 13 12 11 10 9 6 8 15 14 -1 4 12 14 14 14 nan
nan 14 14 15 14 7 -4 7 9 10 10 11 12 12 16 14 8 5 6 7 9 9 10 11 9 10 11 9 11 14 14 11 10 13 14 8 5 1 10 12 11 13 11 nan
nan 21 21 16 11 2 -4 11 12 8 10 13 10 10 20 18 15 6 2 9 11 11 11 11 10 9 11 10 7 11 8 8 11 10 8 14 14 10 9 11 10 13 13 nan
nan 21 24 19 6 -2 5 12 22 11 3 10 12 12 18 16 7 12 14 9 10 12 11 10 10 15 12 10 12 6 5 7 9 11 16 14 9 12 9 12 13 13 12 nan
nan 16 18 13 1 -3 5 29 22 1 4 11 11 11 14 12 9 11 12 11 12 12 10 11 11 11 10 10 10 6 9 16 10 5 12 15 14 13 11 13 14 11 11 nan
nan 10 -3 -6 4 17 23 16 -3 4 13 12 11 11 11 10 10 12 10 12 12 12 11 12 12 11 11 10 8 8 10 11 10 11 16 16 17 10 10 13 16 14 9 nan
nan -2 3 11 21 13 2 1 8 12 12 11 12 10 13 11 11 14 10 11 13 11 10 9 11 12 8 6 10 10 11 12 15 18 16 14 14 12 11 13 13 15 13 nan
nan 11 14 12 8 2 11 12 12 12 12 10 11 13 11 11 11 10 11 12 12 11 11 11 9 9 5 6 10 12 14 15 17 17 14 16 15 15 13 12 15 15 14 nan
nan 12 9 4 7 16 13 12 10 11 10 11 12 13 11 13 12 12 12 11 12 9 10 13 11 7 8 11 11 13 15 15 14 15 15 15 16 16 14 13 12 13 12 nan
nan 9 12 11 9 13 15 11 9 8 8 11 14 13 11 8 14 12 14 11 11 12 11 12 10 10 11 13 12 12 13 13 13 12 13 12 11 12 13 11 11 11 11 nan
nan 9 12 12 11 10 10 10 10 9 9 11 14 11 11 12 13 11 13 12 12 13 12 10 10 12 13 12 12 11 10 10 10 11 12 11 11 11 11 12 13 11 10 nan
nan 12 11 10 12 10 11 12 10 11 13 14 12 10 10 13 11 15 11 11 11 12 13 10 11 12 13 12 13 11 11 11 11 11 11 11 11 10 11 12 13 12 11 nan
nan 10 12 12 11 9 12 12 11 9 15 15 12 13 10 11 11 10 12 13 11 12 12 13 12 11 11 11 11 12 13 13 11 11 12 11 11 11 10 11 11 12 12 nan
nan nan nan nan nan nan nan nan nan nan nan nan nan nan nan nan nan nan nan nan nan nan nan nan nan nan nan nan nan nan nan nan nan nan nan nan nan nan nan nan nan nan nan nan
CAPE
62 52 44 39 40 78 54 53 48 23 4 16 3 1 0 0 0 0 0 0 0 0 0 0 0 0 0 0 4 0 0 0 0 0 0 0 0 0 0 1 0 0 0 0
67 55 54 59 81 65 29 79 51 66 106 16 21 13 1 0 0 0 0 0 0 0 0 0 0 0 0 0 0 6 3 7 0 0 0 0 0 0 0 0 0 0 2 0
50 33 58 68 68 71 48 39 42 41 45 32 6 3 2 0 0 0 0 0 0 0 0 0 0 0 0 0 0 0 39 24 9 6 2 0 0 0 0 0 0 0 0 0
43 42 53 74 85 122 56 43 4 48 1 0 6 6 1 0 0 0 0 0 0 0 0 0 0 0 0 0 0 30 33 11 12 0 0 0 0 0 0 0 0 0 0 0
55 54 81 102 81 158 42 25 44 74 52 3 8 21 34 0 0 1 0 0 0 0 0 0 0 0 0 0 0 0 0 6 17 0 0 0 0 0 0 0 0 0 0 0
63 82 109 123 146 95 41 35 35 93 4 37 33 10 11 2 0 0 0 0 0 1 0 0 0 0 0 0 0 0 0 22 17 4 0 0 0 0 0 0 0 0 0 0
63 75 69 90 109 108 35 49 84 22 1 11 35 107 3 0 0 0 0 0 7 1 0 0 0 0 0 0 0 0 0 1 9 18 4 0 0 0 0 0 0 0 0 0
68 63 61 62 97 110 52 43 88 46 21 13 58 88 3 0 1 4 0 0 0 0 2 29 3 0 0 0 0 0 0 0 20 43 12 0 0 0 0 0 0 0 0 0
78 78 75 53 64 90 58 42 66 106 24 23 32 142 23 3 5 4 0 2 14 12 50 67 14 6 0 0 0 0 0 0 21 26 8 0 0 0 7 8 0 0 0 0
63 54 53 67 67 85 56 46 54 48 16 50 29 35 52 13 1 4 0 1 8 7 59 22 18 1 4 0 1 0 1 2 9 28 3 0 0 0 84 4 0 0 0 0
70 52 44 62 73 76 54 38 55 55 4 54 49 38 44 22 3 0 0 6 8 16 17 35 6 15 7 0 2 3 0 4 14 5 15 1 0 4 42 0 0 0 0 0
43 52 50 28 66 67 71 32 62 47 8 18 9 20 22 20 0 3 4 0 0 0 0 0 0 0 0 0 0 0 9 1 3 2 0 0 0 2 0 0 0 0 0 0
39 46 44 42 30 46 59 1 29 31 3 10 27 2 0 0 0 0 1 0 2 0 0 0 0 0 0 0 0 0 0 0 0 0 0 0 0 0 0 0 0 0 0 0
44 58 33 42 44 41 5 11 24 0 5 27 17 0 0 1 0 3 1 3 39 45 19 5 0 0 0 0 0 0 0 0 0 0 0 0 0 0 1 0 0 0 0 0
45 44 46 56 51 51 6 21 15 18 1 4 2 0 0 0 0 0 42 49 56 57 17 4 30 0 18 0 0 0 0 0 0 0 1 2 0 0 1 0 0 0 0 0
45 40 43 53 41 36 14 3 24 9 5 5 3 0 0 0 0 9 0 17 42 44 25 6 4 0 7 1 0 0 0 0 0 0 2 1 0 0 0 0 0 0 0 0
29 45 62 42 46 8 1 0 1 6 5 2 0 0 0 3 20 23 28 9 12 20 5 9 4 16 80 0 0 1 1 0 0 0 0 3 0 1 0 0 0 0 0 0
34 58 79 40 39 25 8 0 0 1 30 1 8 2 11 11 33 57 65 43 28 15 7 10 10 6 6 11 1 0 0 0 0 0 0 3 2 0 0 0 0 0 0 1
47 75 57 26 25 6 14 6 28 16 7 2 3 5 19 3 21 26 27 23 4 8 0 18 27 1 1 2 3 1 0 0 1 2 1 5 7 1 1 1 1 1 1 2
17 2 0 2 24 29 13 0 3 0 4 2 0 1 7 23 14 2 3 0 5 12 1 4 1 2 4 3 2 0 0 1 3 0 0 1 3 1 2 3 3 4 3 3
0 6 0 14 0 0 0 3 0 4 4 1 0 3 5 1 2 4 0 8 1 2 4 0 1 2 4 4 1 2 2 2 4 4 3 3 4 3 3 4 4 4 2 2
0 0 2 0 0 0 1 1 1 0 3 1 5 4 0 0 5 2 1 4 2 2 3 0 0 5 4 2 2 2 3 3 3 3 3 3 2 3 4 4 4 4 3 1
0 0 0 0 0 0 0 0 0 0 1 0 1 4 0 0 0 0 1 0 1 2 1 1 4 3 3 3 3 3 3 2 2 4 5 1 3 3 3 2 3 2 2 2
0 0 0 0 0 0 0 0 0 0 2 1 0 1 0 0 0 1 0 1 0 0 0 0 3 3 4 6 6 1 2 2 3 4 3 2 2 2 2 2 2 0 1 1
0 0 0 0 0 0 0 0 0 1 2 1 2 0 0 0 0 0 0 0 0 0 0 1 3 3 5 5 7 3 3 3 4 4 3 2 1 1 2 2 2 2 1 2
0 0 0 0 0 0 0 0 0 1 0 0 0 0 0 0 0 0 0 0 0 0 3 4 3 1 1 1 1 1 3 4 4 4 4 3 1 2 3 2 2 1 1 1
0 0 0 0 0 0 0 0 0 1 0 0 0 0 0 2 0 0 1 0 1 1 1 1 1 1 1 1 1 1 1 1 1 3 3 3 3 1 0 1 3 3 3 1